EDT,Max TemperatureF,Mean TemperatureF,Min TemperatureF,Max Dew PointF,MeanDew PointF,Min DewpointF,Max Humidity, Mean Humidity, Min Humidity, Max Sea Level PressureIn, Mean Sea Level PressureIn, Min Sea Level PressureIn, Max VisibilityMiles, Mean VisibilityMiles, Min VisibilityMiles, Max Wind SpeedMPH, Mean Wind SpeedMPH, Max Gust SpeedMPH,PrecipitationIn, CloudCover, Events, WindDirDegrees
2012-7-1,93,78,63,68,60,53,93,61,28,29.91,29.85,29.83,10,10,7,18,5,24,0.00,0,,293
2012-7-2,89,76,62,61,57,50,90,60,29,29.99,29.95,29.92,10,10,10,15,4,20,0.00,1,,304
2012-7-3,90,75,59,67,60,56,90,62,34,30.00,29.92,29.83,10,10,10,18,5,23,T,1,Rain,272
2012-7-4,92,80,68,73,68,65,90,67,44,29.90,29.85,29.75,10,10,7,18,8,25,0.04,4,Rain-Thunderstorm,271
2012-7-5,94,82,69,72,65,57,93,63,32,29.90,29.83,29.79,10,9,5,14,5,21,0.00,0,,318
2012-7-6,96,81,65,73,65,62,93,65,36,29.96,29.90,29.84,10,10,10,13,4,15,0.00,0,,299
2012-7-7,99,83,67,73,69,65,93,67,40,29.95,29.87,29.77,10,9,0,41,3,58,0.47,2,Fog-Rain-Thunderstorm,276
2012-7-8,91,80,69,73,66,57,93,64,34,29.92,29.88,29.83,10,9,5,12,3,15,0.06,4,Rain-Thunderstorm,320
2012-7-9,86,74,62,62,56,46,87,58,28,30.00,29.95,29.91,10,10,10,14,3,18,0.00,1,,330
2012-7-10,88,73,57,65,56,51,87,59,30,30.09,30.02,29.98,10,10,10,15,2,21,T,2,,331
2012-7-11,90,76,61,62,59,48,90,57,24,30.16,30.11,30.08,10,10,10,15,3,21,0.00,1,,165
2012-7-12,90,77,64,65,61,56,87,60,32,30.19,30.15,30.09,10,10,7,10,3,15,0.00,1,,176
2012-7-13,85,76,66,65,62,58,87,69,51,30.21,30.18,30.15,10,10,10,15,3,20,T,1,,198
2012-7-14,83,75,67,66,63,60,93,74,55,30.23,30.17,30.11,10,10,8,12,3,,0.02,8,Rain,158
2012-7-15,87,79,70,72,69,66,97,76,55,30.12,30.05,29.95,10,8,2,22,3,25,0.24,5,Rain-Thunderstorm,256
2012-7-16,92,81,69,70,67,60,97,68,38,29.99,29.91,29.82,10,9,6,15,5,18,0.00,5,,279
2012-7-17,98,81,64,71,65,61,93,63,33,29.89,29.83,29.74,10,10,10,21,5,25,0.00,0,,274
2012-7-18,96,84,71,74,71,65,94,70,46,29.92,29.84,29.78,10,9,2,16,4,20,0.07,2,Rain-Thunderstorm,286
2012-7-19,84,76,68,70,65,55,97,74,51,29.98,29.93,29.88,10,10,7,9,2,12,0.01,6,Rain,50
2012-7-20,70,67,63,66,64,61,93,86,79,30.07,29.97,29.90,10,4,1,14,5,17,1.04,8,Rain,79
2012-7-21,78,70,62,62,60,55,93,70,47,30.11,30.08,30.05,10,9,4,8,3,12,0.01,7,Rain,101
2012-7-22,85,74,63,66,63,61,93,72,51,30.16,30.12,30.05,10,9,5,10,2,15,T,5,,164
2012-7-23,93,80,67,69,66,64,93,67,41,30.09,29.98,29.82,10,8,4,20,5,24,T,3,,225
2012-7-24,94,82,69,71,62,54,82,56,30,29.85,29.73,29.66,10,10,7,21,9,30,0.00,1,,292
2012-7-25,86,73,59,59,55,51,84,59,34,29.96,29.88,29.79,10,10,10,12,3,16,0.00,0,,290
2012-7-26,93,79,65,73,66,58,100,78,56,29.77,29.71,29.60,10,8,0,41,4,59,0.83,5,Fog-Rain-Thunderstorm,45
2012-7-27,88,78,68,72,68,63,93,72,50,29.91,29.79,29.70,10,9,4,22,4,33,0.02,6,Rain,296
2012-7-28,86,77,67,68,66,64,93,74,55,29.96,29.92,29.87,10,8,0,15,4,24,0.76,6,Fog-Rain-Thunderstorm,293
2012-7-29,87,76,65,67,63,56,93,65,37,30.03,29.99,29.95,10,10,10,12,5,18,T,4,Rain-Thunderstorm,278
2012-7-30,85,73,61,67,63,59,97,76,55,30.09,30.04,29.99,10,10,10,14,4,20,0.00,1,,93
2012-7-31,83,75,66,68,65,63,84,70,55,30.03,29.96,29.86,10,10,4,21,5,26,0.12,7,Rain-Thunderstorm,90